{"data":{"norad_id":52871,"epoch":"2026-05-25T01:43:01.639200Z","epoch_age_seconds":68045,"freshness":"FRESH","line1":"1 52871U 22062AT  26145.07154675  .00000098  00000+0  24267-4 0  9999","line2":"2 52871  53.2130  31.2300 0001132  77.5658 282.5461 15.08840534217593","mean_motion":15.08840534,"eccentricity":0.0001132,"inclination_deg":53.213,"raan_deg":31.23,"arg_perigee_deg":77.5658,"mean_anomaly_deg":282.5461,"bstar":2.4267e-5,"rev_number":21759,"period_min":95.437520901066,"perigee_km":538.95865286495,"apogee_km":540.52486061548,"semimajor_km":6917.8787567402,"source":"CELESTRAK","updated_at":"2026-05-25T13:38:17.249601Z"}}